Sign in Sign up

Gangneung

Pos Pair Lane Name Born Nation Time
1 14 O Kjeld Nuis 1989 Netherlands 1:44.01
2 4 I Patrick Roest 1995 Netherlands 1:44.86
3 15 I Min-Seok Kim 1999 South Korea 1:44.93
4 15 O Haralds Silovs 1986 Latvia 1:45.25
5 14 I Takuro Oda 1992 Japan 1:45.44
6 10 O Bart Swings 1991 Belgium 1:45.49
7 17 I Sindre Henriksen 1992 Norway 1:45.64
8 18 O Joey Mantia 1986 USA 1:45.86
9 18 I Sverre Lunde Pedersen 1992 Norway 1:46.12
10 8 O Shane Williamson 1995 Japan 1:46.21
11 16 O Koen Verweij 1990 Netherlands 1:46.26
12 11 O Zbiegniew Bródka 1984 Poland 1:46.31
13 13 O Denny Morrison 1985 Canada 1:46.36
14 9 I Peter Michael 1989 New Zealand 1:46.39
15 11 I Brian Hansen 1990 USA 1:46.44
16 12 I Jan Szymański 1989 Poland 1:46.48
17 5 O Hyung-Joon Joo 1991 South Korea 1:46.65
18 7 O Sergey Trofimov 1995 Russia 1:46.69
19 10 I Shani Davis 1982 USA 1:46.74
20 13 I Konrad Niedźwiedzki 1985 Poland 1:47.07
21 17 O Vincent De Haitre 1994 Canada 1:47.32
22 2 O Alexis Contin 1986 France 1:47.33
23 5 I Mathias Vosté 1994 Belgium 1:47.34
24 3 O Shota Nakamura 1993 Japan 1:47.38
25 9 O Livio Wenger 1993 Switzerland 1:47.76
26 4 O Reyon Kay 1986 New Zealand 1:47.81
27 12 O Andrea Giovannini 1993 Italy 1:47.82
28 7 I Fyodor Mezentsev 1989 Kazakhstan 1:48.23
29 6 I Konrád Nagy 1992 Hungary 1:49.01
30 3 I Denis Kuzin 1988 Kazakhstan 1:49.14
31 8 I Benjamin Donnelly 1996 Canada 1:49.68
32 6 O Aerchenghazi Xiakaini 1995 China 1:50.16
33 1 I Marten Liiv 1996 Estonia 1:50.23
34 2 I Wei-Lin Tai 1997 Taiwan 1:50.63
DNF 16 I Allan Dahl Johansson 1998 Norway

Info

What Olympic Winter Games 2018
Discipline 1.500
Host Gangneung
Nation South Korea
Date Tuesday 13.Feb 2018
Calendar 2017/2018
Air Temp 16.0 C
Ice Temp -9.7 C
Humidity 25.0 %